Home   Weather   Hudson   Past weeks

Flag for USA Past Weather in Hudson, Wisconsin, USA — Yesterday and Last 2 Weeks

Now
27 °F

Ice fog.


Feels Like: 22 °F
Forecast: 25 / 39 °F
Wind: 5 mph from South

Location: St. Paul Downtown Holman Field

Current Time: Dec 5, 2016 at 4:36:39 am

Latest Report: Dec 5, 2016 at 3:53 am


Visibility: 6 mi

Pressure: 29.83 "Hg

Humidity: 100%

Dew Point: 27 °F

Location of HudsonLocation

Past Weather in Hudson — Graph

°F

Hudson Temperature Yesterday

Maximum temperature yesterday: 37 °F (at 6:53 pm)
Minimum temperature yesterday: 30 °F (at 12:53 am)
Average temperature yesterday: 33 °F

High & Low Weather Summary for the Past Weeks

 TemperatureHumidityPressure
High54 °F (Nov 28, 9:53 am)100% (Nov 22, 9:53 pm)30.47 "Hg (Nov 22, 9:53 pm)
Low23 °F (Nov 21, 1:53 am)48% (Nov 21, 2:53 pm)29.00 "Hg (Nov 28, 3:53 pm)
Average34 °F85%29.95 "Hg
* Reported Nov 20 2:53 am — Dec 5 2:53 am, Hudson, Weather by CustomWeather, © 2016

Note: Actual official high and low records may vary slightly from our data, if they occured in-between our weather recording intervals... More about our weather records

Advertising

Hudson Weather History for the Previous 24 Hours

Scroll right to see more
 ConditionsComfort  
Time TempWeatherWind HumidityBarometerVisibility
2:53 am
Mon, Dec 5
28 °FClear.7 mph100%29.85 "Hg8 mi
1:53 am29 °FClear.6 mph100%29.84 "Hg9 mi
12:53 am32 °FClear.3 mph92%29.83 "Hg10 mi
11:53 pm
Sun, Dec 4
33 °FClear.No wind85%29.81 "Hg10 mi
10:53 pm34 °FClear.7 mph85%29.81 "Hg10 mi
9:53 pm37 °FOvercast.10 mph79%29.80 "Hg10 mi
8:53 pm37 °FOvercast.7 mph79%29.79 "Hg10 mi
7:53 pm37 °FOvercast.13 mph86%29.79 "Hg10 mi
6:53 pm37 °FMostly cloudy.8 mph89%29.78 "Hg10 mi
5:53 pm36 °FLight rain. Overcast.12 mph92%29.78 "Hg10 mi
4:53 pm36 °FMostly cloudy.8 mph92%29.78 "Hg10 mi
3:53 pm36 °FCloudy.5 mph92%29.78 "Hg9 mi
2:53 pm35 °FMostly cloudy.9 mph92%29.79 "Hg10 mi
1:53 pm35 °FOvercast.7 mph92%29.81 "Hg10 mi
12:53 pm34 °FFog.6 mph97%29.84 "Hg6 mi
11:53 am33 °FFog.7 mph100%29.86 "Hg3 mi
10:53 am33 °FFog.9 mph100%29.90 "Hg1 mi
9:53 am33 °FFog.12 mph100%29.92 "Hg3 mi
8:53 am33 °FFog.9 mph100%29.94 "Hg4 mi
7:53 am32 °FLight snow. Ice fog.12 mph100%29.95 "Hg1 mi
6:55 am32 °FLight snow. Ice fog.12 mph100%29.96 "Hg1 mi
6:02 am32 °FLight snow. Ice fog.10 mph100%29.98 "Hg1 mi
5:53 am32 °FLight snow. Ice fog.10 mph100%30.01 "Hg1 mi
5:02 am32 °FLight snow. Ice fog.12 mph100%30.01 "Hg1 mi
4:04 am32 °FLight snow. Ice fog.9 mph96%30.04 "Hg1 mi
Weather by CustomWeather, © 2016

See weather overviewHow to use our weather pages